N646B KDEN-

Flight info

Callsign N646B
Flight time N/A
Altitude VFR
Route WEST
Aircraft UH60/L-DOV/C

Departure

Time 2026-05-04 02:34
Airport Denver International Airport (KDEN)

Arrival

Time N/A
Airport -
Time Latitude Longitude Altitude Speed Heading
2026-05-04 02:20 39.83819 -104.66403 5370 ft 0 kts 121°
2026-05-04 02:22 39.83815 -104.66339 5380 ft 20 kts 108°
2026-05-04 02:22 39.83643 -104.66256 5375 ft 43 kts 187°
2026-05-04 02:23 39.83336 -104.66260 5374 ft 46 kts 189°
2026-05-04 02:23 39.83033 -104.66277 5369 ft 41 kts 165°
2026-05-04 02:23 39.82847 -104.66252 5358 ft 14 kts 81°
2026-05-04 02:23 39.82891 -104.66057 5384 ft 41 kts
2026-05-04 02:24 39.83381 -104.66048 5439 ft 98 kts
2026-05-04 02:24 39.84178 -104.66056 5543 ft 123 kts 358°
2026-05-04 02:24 39.84825 -104.66702 5716 ft 128 kts 302°
2026-05-04 02:24 39.85119 -104.67897 5814 ft 152 kts 288°
2026-05-04 02:25 39.85256 -104.69341 5906 ft 170 kts 275°
2026-05-04 02:25 39.85376 -104.70902 5977 ft 171 kts 276°
2026-05-04 02:25 39.85490 -104.72362 5934 ft 152 kts 276°
2026-05-04 02:25 39.85591 -104.73685 5983 ft 142 kts 276°
2026-05-04 02:26 39.85686 -104.74940 5998 ft 137 kts 276°
2026-05-04 02:26 39.85780 -104.76163 6020 ft 133 kts 276°
2026-05-04 02:26 39.85872 -104.77344 6016 ft 129 kts 276°
2026-05-04 02:26 39.85961 -104.78495 6018 ft 127 kts 276°
2026-05-04 02:27 39.86047 -104.79603 6019 ft 123 kts 276°
2026-05-04 02:27 39.86132 -104.80709 6019 ft 120 kts 276°
2026-05-04 02:27 39.86213 -104.81765 6017 ft 118 kts 276°
2026-05-04 02:27 39.86294 -104.82825 6016 ft 117 kts 276°
2026-05-04 02:28 39.86374 -104.83878 6016 ft 117 kts 276°
2026-05-04 02:28 39.86454 -104.84927 6015 ft 116 kts 276°
2026-05-04 02:28 39.86533 -104.85976 6015 ft 116 kts 276°
2026-05-04 02:28 39.86612 -104.87023 6014 ft 116 kts 276°
2026-05-04 02:29 39.86690 -104.88067 6014 ft 116 kts 276°
2026-05-04 02:29 39.86769 -104.89110 6014 ft 116 kts 276°
2026-05-04 02:29 39.86848 -104.90152 6014 ft 116 kts 276°
2026-05-04 02:29 39.86928 -104.91191 6013 ft 115 kts 276°
2026-05-04 02:30 39.87008 -104.92234 6014 ft 115 kts 276°
2026-05-04 02:30 39.87087 -104.93259 6013 ft 115 kts 276°
2026-05-04 02:30 39.87166 -104.94298 6013 ft 115 kts 276°
2026-05-04 02:30 39.87245 -104.95332 6013 ft 115 kts 276°
2026-05-04 02:31 39.87323 -104.96364 6013 ft 114 kts 276°
2026-05-04 02:31 39.87401 -104.97393 6013 ft 114 kts 276°
2026-05-04 02:31 39.87478 -104.98420 6013 ft 114 kts 276°
2026-05-04 02:31 39.87556 -104.99451 6013 ft 114 kts 276°
2026-05-04 02:32 39.87634 -105.00481 6013 ft 114 kts 276°
2026-05-04 02:32 39.87712 -105.01513 6013 ft 114 kts 276°
2026-05-04 02:32 39.87790 -105.02544 6013 ft 114 kts 276°
2026-05-04 02:32 39.87868 -105.03562 6013 ft 114 kts 276°
2026-05-04 02:33 39.87947 -105.04593 6013 ft 114 kts 276°
2026-05-04 02:33 39.88024 -105.05623 6013 ft 114 kts 276°
2026-05-04 02:33 39.88104 -105.06655 6013 ft 115 kts 276°
2026-05-04 02:33 39.88182 -105.07689 6013 ft 115 kts 276°
2026-05-04 02:34 39.88262 -105.08724 6013 ft 115 kts 277°
2026-05-04 02:34 39.88342 -105.09760 6013 ft 115 kts 277°
2026-05-04 02:34 39.88422 -105.10793 6013 ft 115 kts 277°
2026-05-04 02:34 39.88501 -105.11827 6243 ft 113 kts 275°
2026-05-04 02:35 39.88649 -105.12874 6042 ft 125 kts 286°
2026-05-04 02:35 39.89075 -105.13793 5864 ft 111 kts 305°
2026-05-04 02:35 39.89552 -105.14348 5783 ft 70 kts 323°
2026-05-04 02:35 39.89873 -105.14519 5679 ft 28 kts 345°
2026-05-04 02:36 39.89803 -105.14695 5661 ft 45 kts 223°
2026-05-04 02:36 39.89626 -105.15020 5646 ft 51 kts 236°
2026-05-04 02:36 39.89495 -105.15432 5654 ft 41 kts 267°
2026-05-04 02:36 39.89492 -105.15614 5621 ft 9 kts 282°
2026-05-04 02:37 39.89500 -105.15663 5612 ft 3 kts 281°
2026-05-04 02:37 39.89500 -105.15671 5611 ft 0 kts 283°
2026-05-04 02:37 39.89459 -105.15591 5665 ft 43 kts 106°
2026-05-04 02:37 39.89474 -105.14787 5895 ft 123 kts 89°
2026-05-04 02:38 39.89531 -105.13512 5868 ft 154 kts 88°
2026-05-04 02:38 39.89595 -105.12154 5864 ft 148 kts 88°
2026-05-04 02:38 39.89651 -105.10836 5866 ft 144 kts 88°
2026-05-04 02:38 39.89707 -105.09553 5870 ft 143 kts 88°
2026-05-04 02:39 39.89763 -105.08266 5875 ft 142 kts 88°
2026-05-04 02:39 39.89819 -105.06982 5878 ft 141 kts 88°
2026-05-04 02:39 39.89875 -105.05713 5881 ft 140 kts 88°
2026-05-04 02:39 39.89929 -105.04463 5884 ft 137 kts 88°
2026-05-04 02:40 39.89983 -105.03227 5884 ft 136 kts 88°
2026-05-04 02:40 39.90041 -105.01906 5871 ft 159 kts 88°
2026-05-04 02:40 39.90104 -105.00395 5871 ft 174 kts 88°
2026-05-04 02:40 39.90031 -104.98775 5865 ft 184 kts 98°
2026-05-04 02:41 39.89861 -104.97114 5871 ft 186 kts 98°
2026-05-04 02:41 39.89565 -104.95471 5870 ft 189 kts 108°
2026-05-04 02:41 39.89078 -104.93878 5880 ft 188 kts 113°
2026-05-04 02:41 39.88591 -104.92300 5880 ft 187 kts 113°
2026-05-04 02:42 39.88106 -104.90727 5880 ft 187 kts 113°
2026-05-04 02:42 39.87623 -104.89155 5883 ft 187 kts 113°
2026-05-04 02:42 39.87140 -104.87586 5880 ft 187 kts 113°
2026-05-04 02:42 39.86656 -104.86012 5881 ft 187 kts 113°
2026-05-04 02:43 39.86249 -104.84439 5887 ft 184 kts 103°
2026-05-04 02:43 39.86103 -104.82783 5885 ft 184 kts 95°
2026-05-04 02:43 39.86066 -104.81122 5874 ft 185 kts 90°
2026-05-04 02:43 39.86127 -104.79444 5876 ft 186 kts 87°
2026-05-04 02:44 39.86215 -104.77763 5882 ft 185 kts 87°
2026-05-04 02:44 39.86309 -104.76099 5888 ft 177 kts 85°
2026-05-04 02:44 39.86221 -104.74602 6170 ft 159 kts 103°
2026-05-04 02:44 39.85947 -104.73310 5883 ft 141 kts 106°
2026-05-04 02:45 39.85655 -104.72114 5930 ft 134 kts 107°
2026-05-04 02:45 39.85446 -104.70998 5953 ft 121 kts 97°
2026-05-04 02:45 39.85444 -104.69890 5784 ft 127 kts 84°
2026-05-04 02:45 39.85683 -104.68801 5683 ft 125 kts 59°
2026-05-04 02:46 39.86190 -104.67866 5620 ft 126 kts 54°
2026-05-04 02:46 39.86165 -104.66908 5582 ft 106 kts 134°
2026-05-04 02:46 39.85540 -104.66504 5561 ft 95 kts 162°
2026-05-04 02:46 39.84965 -104.66340 5559 ft 75 kts 174°
2026-05-04 02:47 39.84467 -104.66296 5526 ft 73 kts 180°
2026-05-04 02:47 39.84206 -104.65640 5520 ft 109 kts 95°
2026-05-04 02:47 39.84390 -104.64796 5691 ft 62 kts 222°
2026-05-04 02:47 39.84398 -104.64689 5709 ft 41 kts 249°
2026-05-04 02:48 39.84215 -104.65285 5555 ft 84 kts 256°
2026-05-04 02:48 39.84029 -104.65978 5489 ft 73 kts 261°
2026-05-04 02:48 39.83969 -104.66370 5408 ft 4 kts 184°
2026-05-04 02:48 39.83972 -104.66371 5368 ft 1 kts 178°